BEIDOU-2 IGSO-7

Last updated on Tue Sep 22 2026 00:03:14 GMT+0000 (Coordinated Universal Time)

1 43539U 18057A 26264.51887648 -.00000154 00000+0 00000+0 0 9991 2 43539 55.2124 162.2367 0107827 236.4545 261.1147 1.00274984 30095
UTC large
Height (km)
Speed (km/s)
/
Latitude / Longitude
Inclination (degrees)
Orbital Period (minutes)
Azimuth
Elevation
Range (km)
Doppler Factor

Next 0 passes for location: London (51.5072 / 0.1276)

No passes found over London.
BEIDOU-2 IGSO-7